Regional Weather Roundup
Issued by NWS

Home | Current Version | Previous Version | Text Only | Print | Product List | Glossary Off
Versions: 1 2 3 4 5 6 7 8 9 10 11 12 13 14 15 16 17 18 19 20 21 22 23 24 25 26 27 28 29 30 31 32 33 34 35 36 37 38 39 40 41 42 43 44 45 46 47 48 49 50

000
ASUS45 KBOI 191110
RWRID

IDAHO REGIONAL WEATHER ROUNDUP
NATIONAL WEATHER SERVICE BOISE ID
400 AM MST THU JAN 19 2017

NOTE: "FAIR" INDICATES FEW OR NO CLOUDS BELOW 12000 FEET
WITH NO SIGNIFICANT WEATHER AND/OR OBSTRUCTIONS TO VISIBILITY

IDZ012-014-191200-
SOUTHWEST IDAHO


CITY           SKY/WX    TMP DP  RH WIND       PRES   REMARKS
BOISE          LGT RAIN  37  34  89 SE12      29.63F WCI  29
CALDWELL       LGT SNOW  34  32  92 SE21      29.65R FOG     WCI  22
$$

IDZ016-017-191200-
SOUTHCENTRAL IDAHO


CITY           SKY/WX    TMP DP  RH WIND       PRES   REMARKS
BURLEY         LGT SNOW  34  30  85 S23G30    29.67F FOG     WCI  22
JEROME         LGT SNOW  28  27  96 NE17      29.69F FOG     WCI  16
TWIN FALLS     LGT RAIN  35  31  85 SE10G23   29.67F WCI  27
$$

IDZ019>023-191200-
SOUTHEAST IDAHO


CITY           SKY/WX    TMP DP  RH WIND       PRES   REMARKS
IDAHO FALLS    LGT SNOW  22  21  96 N8        29.76F VSB 3/4 WCI  12
POCATELLO      LGT SNOW  29  26  89 W6        29.74F FOG     WCI  23
REXBURG        LGT SNOW  21  20  96 E8        29.76F VSB 1   WCI  11
$$

IDZ006-010-011-018-031-032-191200-
CENTRAL IDAHO MOUNTAINS


CITY           SKY/WX    TMP DP  RH WIND       PRES   REMARKS
MCCALL         LGT SNOW  32  31  96 CALM      29.56S VSB 1
HAILEY         LGT SNOW  28  28 100 SE3       29.71S
STANLEY          N/A     31  29  92 SE10      29.61F WCI  22
SALMON         CLOUDY    19  16  86 S5        29.65F WCI  13
CHALLIS        CLOUDY    17  16  95 S3        29.65F
$$

IDZ002-004-006-007-026-191200-
NORTHERN IDAHO


CITY           SKY/WX    TMP DP  RH WIND       PRES   REMARKS
LEWISTON       CLOUDY    39  31  72 E6        29.56S WCI  35
LOWELL           N/A     33  31  92 CALM      29.62F
COEUR D`ALENE  CLOUDY    37  36  96 S9        29.53S WCI  30
MULLAN PASS    SNOW      31  28  89 VRB5      29.49R VSB 1/2 WCI  26
$$



USA.gov is the U.S. government's official web portal to all federal, state and local government web resources and services.